Weather History for Burlington, WA

Change the Weather History Date:

Wednesday, January 16, 2013

  Actual Average Record
Temperature  
Mean Temperature 36 °F -  
Max Temperature 42 °F 47 °F 60 °F (1958)
Min Temperature 30 °F 35 °F 19 °F (1957)
Degree Days  
Heating Degree Days 29    
Moisture  
Dew Point 33 °F    
Average Humidity 95    
Maximum Humidity 100    
Minimum Humidity 76    
Precipitation  
Precipitation 0.00 in - - ()
Sea Level Pressure  
Sea Level Pressure 30.62 in    
Wind  
Wind Speed 6 mph (North)    
Max Wind Speed 12 mph    
Max Gust Speed -    
Visibility 10 miles    
Events      
Averages and records for this station are not official NWS values.
T = Trace of Precipitation, MM = Missing Value Source: NWS Daily Summary

Daily Weather History Graph

Daily Weather History Graph

Search for Another Location

Airport:

Trip Planner

Search our weather history database for the weather conditions in past years. The results will help you decide how hot, cold, wet, or windy it might be!

Date:

Astronomy

Jan. 16, 2013 Rise Set
Actual Time 7:55 AM PST 4:44 PM PST
Civil Twilight 7:20 AM PST 5:19 PM PST
Nautical Twilight 6:41 AM PST 5:58 PM PST
Astronomical Twilight 6:03 AM PST 6:36 PM PST
Moon 10:03 AM PST (1/16) 11:15 PM PST (1/16)
Length of Visible Light 9h 59m
Length of Day
8h 49m
Waxing Crescent, 29% of the Moon is Illuminated
Jan 16
Waxing Crescent
Jan 18
First Quarter
Jan 26
Full
Feb 3
Last Quarter
Feb 9
New

Hourly Weather History & Observations

Time (PST) Temp. Windchill Dew Point Humidity Pressure Visibility Wind Dir Wind Speed Gust Speed Precip Events Conditions
12:35 AM 32.0 °F 27.5 °F 32.0 °F 100% 30.70 in 10.0 mi NE 4.6 mph - 0.00 in   Clear
12:55 AM 32.0 °F 27.5 °F 32.0 °F 100% 30.70 in 10.0 mi NE 4.6 mph - 0.00 in   Clear
1:15 AM 32.0 °F 26.4 °F 32.0 °F 100% 30.69 in 10.0 mi NE 5.8 mph - 0.00 in   Clear
1:35 AM 32.0 °F 26.4 °F 32.0 °F 100% 30.70 in 10.0 mi NE 5.8 mph - 0.00 in   Clear
1:55 AM 32.0 °F 24.2 °F 32.0 °F 100% 30.70 in 10.0 mi NE 9.2 mph - 0.00 in   Clear
2:15 AM 32.0 °F 24.8 °F 32.0 °F 100% 30.70 in 10.0 mi NE 8.1 mph - 0.00 in   Clear
2:35 AM 32.0 °F 26.4 °F 32.0 °F 100% 30.70 in 10.0 mi NE 5.8 mph - 0.00 in   Clear
2:55 AM 32.0 °F 26.4 °F 32.0 °F 100% 30.70 in 10.0 mi NE 5.8 mph - 0.00 in   Clear
3:35 AM 32.0 °F 24.8 °F 32.0 °F 100% 30.70 in 10.0 mi NE 8.1 mph - 0.00 in   Clear
3:55 AM 32.0 °F 25.6 °F 32.0 °F 100% 30.69 in 10.0 mi NE 6.9 mph - 0.00 in   Clear
4:35 AM 32.0 °F 26.4 °F 32.0 °F 100% 30.69 in 10.0 mi NE 5.8 mph - 0.00 in   Clear
4:55 AM 32.0 °F 25.6 °F 32.0 °F 100% 30.68 in 10.0 mi NE 6.9 mph - 0.00 in   Clear
5:15 AM - - - N/A% 30.67 in 10.0 mi NE 5.8 mph - 0.00 in   Clear
5:35 AM 30.2 °F 26.7 °F 30.2 °F 100% 30.67 in 10.0 mi NNE 3.5 mph - 0.00 in   Clear
5:55 AM 30.2 °F - 30.2 °F 100% 30.67 in 10.0 mi Calm Calm - 0.00 in   Clear
6:15 AM 30.2 °F 26.7 °F 30.2 °F 100% 30.66 in 10.0 mi North 3.5 mph - 0.00 in   Clear
6:35 AM 30.2 °F 24.3 °F 30.2 °F 100% 30.66 in 10.0 mi NE 5.8 mph - 0.00 in   Clear
6:55 AM 30.2 °F 23.4 °F 30.2 °F 100% 30.65 in 10.0 mi NE 6.9 mph - 0.00 in   Clear
7:55 AM 30.2 °F 24.3 °F 30.2 °F 100% 30.66 in 10.0 mi NNE 5.8 mph - 0.00 in   Clear
8:15 AM 30.2 °F 22.6 °F 30.2 °F 100% 30.66 in 10.0 mi NE 8.1 mph - 0.00 in   Clear
8:35 AM - - - N/A% 30.67 in 10.0 mi ENE 5.8 mph - 0.00 in   Clear
8:55 AM 32.0 °F 26.4 °F 32.0 °F 100% 30.66 in 10.0 mi NE 5.8 mph - 0.00 in   Clear
9:15 AM 32.0 °F 25.6 °F 32.0 °F 100% 30.66 in 10.0 mi NE 6.9 mph - 0.00 in   Clear
9:35 AM 32.0 °F 26.4 °F 32.0 °F 100% 30.66 in 10.0 mi NE 5.8 mph - 0.00 in   Clear
9:55 AM 32.0 °F 25.6 °F 32.0 °F 100% 30.65 in 10.0 mi NE 6.9 mph - 0.00 in   Clear
10:15 AM 33.8 °F 28.6 °F 32.0 °F 93% 30.65 in 10.0 mi NE 5.8 mph - 0.00 in   Clear
10:55 AM 35.6 °F - 33.8 °F 93% 30.65 in 10.0 mi Calm Calm - 0.00 in   Clear
11:15 AM 35.6 °F - 33.8 °F 93% 30.64 in 10.0 mi Calm Calm - 0.00 in   Clear
11:35 AM 37.4 °F 33.8 °F 35.6 °F 93% 30.64 in 10.0 mi NE 4.6 mph - 0.00 in   Clear
11:55 AM 39.2 °F 35.0 °F 35.6 °F 87% 30.64 in 10.0 mi NNW 5.8 mph - 0.00 in   Clear
12:15 PM 39.2 °F 33.6 °F 35.6 °F 87% 30.63 in 10.0 mi NNW 8.1 mph - 0.00 in   Clear
12:35 PM 39.2 °F 34.2 °F 35.6 °F 87% 30.62 in 10.0 mi NW 6.9 mph - 0.00 in   Clear
12:55 PM 41.0 °F 34.3 °F 35.6 °F 81% 30.61 in 10.0 mi NW 11.5 mph - 0.00 in   Clear
1:15 PM 41.0 °F 34.7 °F 35.6 °F 81% 30.61 in 10.0 mi NW 10.4 mph - 0.00 in   Clear
1:35 PM 41.0 °F 35.8 °F 35.6 °F 81% 30.60 in 10.0 mi NW 8.1 mph - 0.00 in   Clear
1:55 PM 42.8 °F 38.0 °F 35.6 °F 76% 30.60 in 10.0 mi NW 8.1 mph - 0.00 in   Clear
2:15 PM 41.0 °F 35.2 °F 35.6 °F 81% 30.60 in 10.0 mi NNW 9.2 mph - 0.00 in   Clear
2:35 PM 41.0 °F 35.8 °F 35.6 °F 81% 30.59 in 10.0 mi NW 8.1 mph - 0.00 in   Clear
2:55 PM 41.0 °F 36.4 °F 35.6 °F 81% 30.59 in 10.0 mi NNW 6.9 mph - 0.00 in   Clear
3:15 PM 41.0 °F 35.8 °F 35.6 °F 81% 30.60 in 10.0 mi NW 8.1 mph - 0.00 in   Clear
3:35 PM 39.2 °F 33.6 °F 35.6 °F 87% 30.59 in 10.0 mi NW 8.1 mph - 0.00 in   Clear
3:55 PM 37.4 °F 32.1 °F 35.6 °F 93% 30.58 in 10.0 mi NW 6.9 mph - 0.00 in   Clear
4:15 PM 37.4 °F 32.1 °F 33.8 °F 87% 30.58 in 10.0 mi NW 6.9 mph - 0.00 in   Clear
4:35 PM 35.6 °F 29.2 °F 33.8 °F 93% 30.58 in 9.0 mi NW 8.1 mph - 0.00 in   Clear
4:55 PM 35.6 °F 29.2 °F 33.8 °F 93% 30.58 in 10.0 mi NW 8.1 mph - 0.00 in   Clear
5:15 PM 35.6 °F 29.2 °F 33.8 °F 93% 30.58 in 10.0 mi NNW 8.1 mph - 0.00 in   Clear
5:35 PM 37.4 °F 30.8 °F 33.8 °F 87% 30.58 in 10.0 mi NW 9.2 mph - 0.00 in   Clear
5:55 PM 35.6 °F 29.2 °F 33.8 °F 93% 30.58 in 10.0 mi NNW 8.1 mph - 0.00 in   Clear
6:15 PM 35.6 °F 29.9 °F 33.8 °F 93% 30.58 in 10.0 mi NNW 6.9 mph - 0.00 in   Clear
6:55 PM 35.6 °F 29.9 °F 33.8 °F 93% 30.58 in 10.0 mi NNW 6.9 mph - 0.00 in   Clear
7:15 PM 35.6 °F 29.9 °F 33.8 °F 93% 30.57 in 10.0 mi NNW 6.9 mph - 0.00 in   Clear
7:35 PM 33.8 °F 27.7 °F 33.8 °F 100% 30.57 in 10.0 mi NW 6.9 mph - 0.00 in   Clear
7:55 PM 35.6 °F 29.9 °F 33.8 °F 93% 30.56 in 10.0 mi North 6.9 mph - 0.00 in   Clear
8:15 PM 33.8 °F 30.8 °F 33.8 °F 100% 30.56 in 10.0 mi NNW 3.5 mph - 0.00 in   Clear
8:35 PM 32.0 °F - 32.0 °F 100% 30.56 in 9.0 mi Calm Calm - 0.00 in   Clear
8:55 PM 32.0 °F 28.7 °F 32.0 °F 100% 30.56 in 8.0 mi NNW 3.5 mph - 0.00 in   Clear
9:15 PM 32.0 °F - 32.0 °F 100% 30.55 in 10.0 mi Calm Calm - 0.00 in   Clear
9:35 PM 32.0 °F 28.7 °F 32.0 °F 100% 30.55 in 8.0 mi North 3.5 mph - 0.00 in   Clear
9:55 PM 32.0 °F 28.7 °F 32.0 °F 100% 30.56 in 10.0 mi North 3.5 mph - 0.00 in   Clear
10:15 PM 32.0 °F - 32.0 °F 100% 30.55 in 10.0 mi Calm Calm - 0.00 in   Clear
10:35 PM 32.0 °F 28.7 °F 32.0 °F 100% 30.55 in 10.0 mi East 3.5 mph - 0.00 in   Clear
10:55 PM 32.0 °F - 32.0 °F 100% 30.54 in 10.0 mi Calm Calm - 0.00 in   Clear
11:15 PM 32.0 °F - 32.0 °F 100% 30.55 in 10.0 mi Calm Calm - 0.00 in   Clear
11:35 PM 32.0 °F - 32.0 °F 100% 30.55 in 8.0 mi Calm Calm - 0.00 in   Clear
11:55 PM 30.2 °F - 30.2 °F 100% 30.54 in 8.0 mi Calm Calm - 0.00 in   Clear